User: anonymous   Login
Location: Mt. Bigelow
(32.4165°N, 110.7345°W)
Time: 17:24:37
(UTC-07:00)
Language:

Tiangong 2 - Orbit

View from above orbital plane
View from above orbital plane
View from above satellite
View from above satellite

Ground track
Ground track

The orbit data is extracted from the following two-line orbital elements,

1 41765U 16057A   17343.91049769 +.00004541 +00000-0 +59693-4 0  9995
2 41765 042.7861 030.5921 0003050 355.3530 359.9707 15.59775647070402
Epoch (UTC): 09 December 2017 21:51:07
Eccentricity: 0.0003050
inclination: 42.7861°
perigee height: 386 km
apogee height: 390 km
right ascension of ascending node: 30.5921°
argument of perigee: 355.3530°
revolutions per day: 15.59775647
mean anomaly at epoch: 359.9707°
orbit number at epoch: 7040

The dashed part of the orbit path shows where the satellite is in the earth's shadow,  

DLR